Location: Unspecified
(0.0000°N, 0.0000°E)
Time: 20:43:10
(UTC+00:00)

STARLINK-30210 - Visible Passes

Search period start: 10 November 2025 00:00
Search period end: 20 November 2025 00:00
Orbit: 448 x 490 km, 43.0° (Epoch: 08 November)

Date Brightness Start Highest point End Pass type
(mag) Time Alt. Az. Time Alt. Az. Time Alt. Az.
10 Nov 4.2 04:49:45 10° SSW 04:53:17 49° SE 04:56:51 10° ENE visible
10 Nov 6.8 18:14:45 10° SW 18:15:29 10° SW 18:16:13 10° SSW visible
11 Nov 4.5 04:17:23 12° SSW 04:20:27 40° SE 04:23:54 10° ENE visible
12 Nov 5.2 03:48:08 29° ESE 03:48:08 29° ESE 03:50:35 10° ENE visible
13 Nov 4.9 04:52:20 16° NW 04:52:20 16° NW 04:54:34 10° N visible
